Regional Weather Roundup
Issued by NWS

Home | Current Version | Previous Version | Text Only | Print | Product List | Glossary Off
Versions: 1 2 3 4 5 6 7 8 9 10 11 12 13 14 15 16 17 18 19 20 21 22 23 24 25 26 27 28 29 30 31 32 33 34 35 36 37 38 39 40 41 42 43 44 45 46 47 48 49 50

000
ASUS43 KIND 281409
RWRIN

WEATHER ROUNDUP FOR INDIANA
NATIONAL WEATHER SERVICE INDIANAPOLIS IN
1000 AM EDT MON JUL 28 2014

NOTE: "FAIR" INDICATES FEW OR NO CLOUDS BELOW 12,000 FEET WITH NO
SIGNIFICANT WEATHER AND/OR OBSTRUCTIONS TO VISIBILITY.

* - STATION DOES NOT REPORT WEATHER SUCH AS PRECIPITATION OR FOG.

+ - STATION NOT QUALITY CONTROLLED BY THE NATIONAL WEATHER SERVICE.
    USE DATA WITH CAUTION...ESPECIALLY DEWPOINT AND RELATIVE
    HUMIDITY OBSERVATIONS.

INZ001>003-010>013-019-020-281500-
NORTHWEST INDIANA

CITY           SKY/WX    TMP DP  RH WIND       PRES   REMARKS
GARY /AIRPORT/ PTSUNNY   64  54  68 NW17G30   30.04R
KNOX *+        CLOUDY    61  54  76 NW14G20   30.00R
LA PORTE +     CLOUDY    59  54  83 N10       30.02R
MICHIGAN CITY+ CLOUDY    59  52  77 N12G17    30.02R
MONTICELLO +   CLOUDY    63  56  78 N15       29.99R
RENSSELAER +   PTSUNNY   63  55  77 N9G21     30.02R
VALPARAISO     CLOUDY    60  53  77 N9G18     30.03R

$$

LMZ046-743>745-281500-
SOUTHERN LAKE MICHIGAN

STATION/POSITION TIME  TEMP WIND        PRES
                       AIR  DIR/SP/G
                 (UTC) (F)  (DEG/KT/KT) (MB)
MICHIGAN CITY    1400   60  340/ 24/ 29   N/A

$$

INZ004-005-014>016-021>024-281500-
NORTH CENTRAL INDIANA

CITY           SKY/WX    TMP DP  RH WIND       PRES   REMARKS
GOSHEN         CLOUDY    62  55  77 N10       29.97R
LOGANSPORT +   CLOUDY    61  54  77 N10G18    29.99R
PERU/GRISSOM   CLOUDY    63  60  91 NW15      29.98R
ROCHESTER +    CLOUDY    64  55  72 N12       29.98S
SOUTH BEND     CLOUDY    63  54  72 NW13      30.00R
WARSAW +       CLOUDY    61  55  82 NW6       29.97R

$$

INZ006>009-017-018-025>027-281500-
NORTHEAST INDIANA

CITY           SKY/WX    TMP DP  RH WIND       PRES   REMARKS
ANGOLA *+      CLOUDY    63  54  72 N5        29.94R
AUBURN +       CLOUDY    64  55  72 N6G12     29.95R
FORT WAYNE     PTSUNNY   65  59  81 NW12      29.95R
HUNTINGTON +   CLOUDY    63  58  84 NW8       29.95R

$$

INZ028-029-035-036-043>045-051>053-281500-
WEST CENTRAL INDIANA

CITY           SKY/WX    TMP DP  RH WIND       PRES   REMARKS
GREENCASTLE +  SUNNY     63  55  77 N14       30.01R
LAFAYETTE      MOSUNNY   66  56  70 N13       30.00R
TERRE HAUTE    SUNNY     67  54  63 N13       30.01R

$$

INZ030>032-037>040-046>048-054>057-064-065-281500-
CENTRAL INDIANA

CITY           SKY/WX    TMP DP  RH WIND       PRES   REMARKS
ANDERSON       CLOUDY    64  57  77 NW12      29.97R
CP ATTERBURY + CLOUDY    66  55  68 NW7G16    29.98R
COLUMBUS       CLOUDY    66  59  77 NW8       29.97R
INDIANAPOLIS   CLOUDY    63  56  78 NW14      29.98R
-EAGLE CREEK   CLOUDY    63  56  78 N9        29.98R
KOKOMO *+      CLOUDY    63  57  82 N9        29.98R
MARION +       CLOUDY    62  57  84 NW9       29.97R
MT COMFORT *+  CLOUDY    64  64 100 NW14      29.98R
SHELBYVILLE    CLOUDY    68  59  73 NW9       29.96R
ZIONSVILLE +   CLOUDY    63  55  77 N10       29.99R

$$

INZ033-034-041-042-049-050-058-059-281500-
EAST CENTRAL INDIANA

CITY           SKY/WX    TMP DP  RH WIND       PRES   REMARKS
MUNCIE         CLOUDY    64  58  80 NW10      29.95R

$$

INZ060-061-067>069-081>083-085>088-281500-
SOUTHWEST INDIANA

CITY           SKY/WX    TMP DP  RH WIND       PRES   REMARKS
EVANSVILLE     MOSUNNY   71  60  68 N9        30.02R
WASHINGTON +   MOSUNNY   67  60  77 N13       30.00S

$$

INZ062-063-066-070>080-084-089>092-281500-
SOUTH CENTRAL AND SOUTHEAST INDIANA

CITY           SKY/WX    TMP DP  RH WIND       PRES   REMARKS
BLOOMINGTON    CLOUDY    65  56  72 N10G17    30.00R
NORTH VERNON + CLOUDY    66  64  94 NW7       29.97

$$



USA.gov is the U.S. government's official web portal to all federal, state and local government web resources and services.